Location: Mount Cross
(36.6390°N, 79.4878°W)
Time: 20:03:23
(UTC+00:00)

Courier 1B Rocket - Pass Details

Date: 26 March 2023
Orbit: 920 x 1202 km, 28.2° (Epoch: 05 June)

Event Time Altitude Azimuth Distance (km) Brightness Sun altitude
Rises 06:42:20 0° 260° (W) 3,583 - -47.1°
Reaches altitude 10° 06:46:22 10° 235° (SW) 2,611 - -46.7°
Maximum altitude 06:49:23 14° 206° (SSW) 2,333 - -46.4°
Drops below altitude 10° 06:52:22 10° 177° (S) 2,599 - -46.1°
Sets 06:56:23 0° 152° (SSE) 3,553 - -45.6°
